Location: Belfast
(54.5830°N, 5.9330°W)
Time: 14:07:36
(UTC+01:00)

ISS - Pass Details

Date: 28 May 2017
Orbit: 402 x 408 km, 51.6° (Epoch: 26 May)

Event Time Altitude Azimuth Distance (km) Brightness Sun altitude
Rises 02:14:31 0° 276° (W) 2,334 0.0 -13.1°
Reaches altitude 10° 02:16:48 10° 263° (W) 1,470 -1.2 -13.0°
Maximum altitude 02:19:35 25° 205° (SSW) 857 -2.8 -12.9°
Enters shadow 02:19:56 25° 194° (SSW) 869 -2.8 -12.9°
